| time (UTC) | temp F | wind direction | speed MPH | gust MPH | rain 1hr in | rain 24hr in | rain mn in | humidity % | barometer mb |
| 20260506051005 | 36 | 271 | 2.0 | 6.0 | 0.00 | 0.00 | 0.00 | 63 | 1012.2 |
| 20260506050211 | 36 | 260 | 1.0 | 3.0 | 0.00 | 0.00 | 0.00 | 64 | 1012.1 |
| 20260506045004 | 36 | 301 | 3.0 | 6.0 | 0.00 | 0.00 | 0.00 | 63 | 1012.0 |
| 20260506044710 | 36 | 294 | 2.0 | 3.0 | 0.00 | 0.00 | 0.00 | 64 | 1012.0 |
| 20260506044004 | 36 | 266 | 4.0 | 7.0 | 0.00 | 0.00 | 0.00 | 64 | 1012.0 |
| 20260506043210 | 37 | 299 | 2.0 | 3.0 | 0.00 | 0.00 | 0.00 | 61 | 1011.9 |
| 20260506043004 | 37 | 273 | 3.0 | 8.0 | 0.00 | 0.00 | 0.00 | 61 | 1011.9 |
| 20260506042005 | 37 | 296 | 1.0 | 7.0 | 0.00 | 0.00 | 0.00 | 63 | 1011.9 |
| 20260506041709 | 37 | 286 | 0.0 | 5.0 | 0.00 | 0.00 | 0.00 | 61 | 1011.9 |
| 20260506041005 | 37 | 277 | 2.0 | 6.0 | 0.00 | 0.00 | 0.00 | 61 | 1011.9 |
| 20260506040210 | 37 | 315 | 3.0 | 6.0 | 0.00 | 0.00 | 0.00 | 61 | 1011.9 |
| 20260506040005 | 38 | 270 | 3.0 | 7.0 | 0.00 | 0.00 | 0.00 | 61 | 1011.9 |
| 20260506035005 | 38 | 339 | 3.0 | 8.0 | 0.00 | 0.00 | 0.00 | 59 | 1012.0 |
| 20260506034710 | 38 | 287 | 2.0 | 7.0 | 0.00 | 0.00 | 0.00 | 60 | 1012.0 |
| 20260506033209 | 38 | 290 | 3.0 | 9.0 | 0.00 | 0.00 | 0.00 | 61 | 1011.9 |
| 20260506033005 | 38 | 261 | 2.0 | 8.0 | 0.00 | 0.00 | 0.00 | 61 | 1011.9 |
| 20260506032005 | 38 | 312 | 3.0 | 6.0 | 0.00 | 0.00 | 0.00 | 60 | 1011.9 |
| 20260506031711 | 38 | 310 | 0.0 | 2.0 | 0.00 | 0.00 | 0.00 | 60 | 1011.9 |
| 20260506031004 | 38 | 312 | 2.0 | 6.0 | 0.00 | 0.00 | 0.00 | 61 | 1011.8 |
| 20260506030210 | 38 | 308 | 2.0 | 6.0 | 0.00 | 0.00 | 0.00 | 63 | 1011.8 |
| 20260506030005 | 38 | 298 | 1.0 | 6.0 | 0.00 | 0.00 | 0.00 | 61 | 1011.8 |
| 20260506024709 | 38 | 7 | 1.0 | 3.0 | 0.00 | 0.00 | 0.00 | 61 | 1011.8 |
| 20260506023209 | 38 | 288 | 2.0 | 3.0 | 0.00 | 0.00 | 0.00 | 60 | 1011.8 |
| 20260506023005 | 38 | 274 | 1.0 | 3.0 | 0.00 | 0.00 | 0.00 | 61 | 1011.8 |
| 20260506022005 | 39 | 302 | 2.0 | 5.0 | 0.00 | 0.00 | 0.00 | 61 | 1011.6 |
| 20260506021711 | 39 | 295 | 0.0 | 1.0 | 0.00 | 0.00 | 0.00 | 61 | 1011.5 |
| 20260506021004 | 39 | 334 | 0.0 | 8.0 | 0.00 | 0.00 | 0.00 | 59 | 1011.5 |
| 20260506020210 | 39 | 322 | 2.0 | 3.0 | 0.00 | 0.00 | 0.00 | 58 | 1011.4 |
| 20260506020005 | 39 | 348 | 1.0 | 6.0 | 0.00 | 0.00 | 0.00 | 58 | 1011.4 |
| 20260506015005 | 39 | 239 | 2.0 | 8.0 | 0.00 | 0.00 | 0.00 | 59 | 1011.2 |
| 20260506014709 | 40 | 306 | 2.0 | 5.0 | 0.00 | 0.00 | 0.00 | 58 | 1011.2 |
| 20260506013210 | 40 | 332 | 2.0 | 6.0 | 0.00 | 0.00 | 0.00 | 57 | 1011.0 |
| 20260506013004 | 40 | 284 | 3.0 | 9.0 | 0.00 | 0.00 | 0.00 | 59 | 1011.0 |
| 20260506012004 | 40 | 332 | 4.0 | 13.0 | 0.00 | 0.00 | 0.00 | 56 | 1010.8 |
| 20260506011710 | 40 | 270 | 2.0 | 3.0 | 0.00 | 0.00 | 0.00 | 58 | 1010.8 |
| 20260506011005 | 40 | 279 | 3.0 | 8.0 | 0.00 | 0.00 | 0.00 | 57 | 1010.7 |
| 20260506010209 | 40 | 265 | 2.0 | 3.0 | 0.00 | 0.00 | 0.00 | 58 | 1010.6 |
| 20260506010005 | 41 | 295 | 2.0 | 8.0 | 0.00 | 0.00 | 0.00 | 56 | 1010.7 |
| 20260506004710 | 41 | 313 | 1.0 | 1.0 | 0.00 | 0.00 | 0.00 | 58 | 1010.6 |
| 20260506004004 | 41 | 262 | 1.0 | 8.0 | 0.00 | 0.00 | 0.00 | 56 | 1010.5 |
| 20260506003210 | 41 | 283 | 3.0 | 5.0 | 0.00 | 0.00 | 0.00 | 55 | 1010.5 |
| 20260506003005 | 41 | 298 | 3.0 | 9.0 | 0.00 | 0.00 | 0.00 | 55 | 1010.6 |
| 20260506002004 | 41 | 279 | 2.0 | 12.0 | 0.00 | 0.00 | 0.00 | 56 | 1010.5 |
| 20260506001711 | 41 | 253 | 2.0 | 3.0 | 0.00 | 0.00 | 0.00 | 55 | 1010.5 |
| 20260506001004 | 42 | 346 | 6.0 | 13.0 | 0.00 | 0.00 | 0.00 | 55 | 1010.3 |
| 20260506000211 | 42 | 276 | 5.0 | 9.0 | 0.00 | 0.00 | 0.00 | 53 | 1010.2 |
| 20260505235004 | 42 | 318 | 5.0 | 14.0 | 0.00 | 0.00 | 0.00 | 55 | 1010.1 |
| 20260505234710 | 42 | 272 | 6.0 | 6.0 | 0.00 | 0.00 | 0.00 | 53 | 1010.1 |
| 20260505234004 | 42 | 296 | 5.0 | 13.0 | 0.00 | 0.00 | 0.00 | 58 | 1010.0 |
| 20260505233209 | 42 | 264 | 7.0 | 9.0 | 0.00 | 0.00 | 0.00 | 57 | 1010.0 |
| 20260505233005 | 42 | 255 | 8.0 | 15.0 | 0.00 | 0.00 | 0.00 | 55 | 1010.0 |
| 20260505232004 | 42 | 258 | 3.0 | 9.0 | 0.00 | 0.00 | 0.00 | 53 | 1009.9 |
| 20260505231709 | 42 | 304 | 3.0 | 5.0 | 0.00 | 0.00 | 0.00 | 56 | 1009.8 |
| 20260505231004 | 42 | 340 | 4.0 | 13.0 | 0.00 | 0.00 | 0.00 | 51 | 1009.9 |
| 20260505230209 | 42 | 320 | 1.0 | 6.0 | 0.00 | 0.00 | 0.00 | 55 | 1009.8 |
| 20260505230004 | 42 | 291 | 2.0 | 12.0 | 0.00 | 0.00 | 0.00 | 55 | 1009.8 |
| 20260505225005 | 42 | 317 | 5.0 | 14.0 | 0.00 | 0.00 | 0.00 | 53 | 1009.9 |
| 20260505224710 | 42 | 287 | 8.0 | 12.0 | 0.00 | 0.00 | 0.00 | 50 | 1009.9 |
| 20260505224004 | 42 | 267 | 9.0 | 15.0 | 0.00 | 0.00 | 0.00 | 52 | 1009.8 |
| 20260505223209 | 42 | 304 | 5.0 | 3.0 | 0.00 | 0.00 | 0.00 | 51 | 1009.8 |
| 20260505223005 | 43 | 314 | 3.0 | 10.0 | 0.00 | 0.00 | 0.00 | 54 | 1009.8 |
| 20260505222004 | 42 | 290 | 4.0 | 12.0 | 0.00 | 0.00 | 0.00 | 50 | 1009.8 |
| 20260505221710 | 43 | 273 | 5.0 | 8.0 | 0.00 | 0.00 | 0.00 | 51 | 1009.8 |
| 20260505221004 | 43 | 254 | 3.0 | 15.0 | 0.00 | 0.00 | 0.00 | 49 | 1009.7 |
| 20260505220210 | 43 | 314 | 8.0 | 13.0 | 0.00 | 0.00 | 0.00 | 50 | 1009.7 |
| 20260505215004 | 43 | 265 | 8.0 | 14.0 | 0.00 | 0.00 | 0.00 | 51 | 1009.8 |
| 20260505214709 | 43 | 256 | 7.0 | 14.0 | 0.00 | 0.00 | 0.00 | 53 | 1009.7 |
| 20260505214004 | 42 | 291 | 5.0 | 18.0 | 0.00 | 0.00 | 0.00 | 54 | 1009.7 |
| 20260505213209 | 42 | 281 | 7.0 | 12.0 | 0.00 | 0.00 | 0.00 | 52 | 1009.7 |
| 20260505213005 | 42 | 273 | 6.0 | 14.0 | 0.00 | 0.00 | 0.00 | 51 | 1009.7 |
| 20260505212005 | 42 | 245 | 5.0 | 17.0 | 0.00 | 0.00 | 0.00 | 52 | 1009.7 |
| 20260505211710 | 42 | 264 | 9.0 | 13.0 | 0.00 | 0.00 | 0.00 | 52 | 1009.7 |
| 20260505211004 | 42 | 258 | 9.0 | 20.0 | 0.00 | 0.00 | 0.00 | 53 | 1009.6 |
| 20260505210210 | 42 | 262 | 10.0 | 20.0 | 0.00 | 0.00 | 0.00 | 57 | 1009.6 |
| 20260505210004 | 42 | 256 | 9.0 | 15.0 | 0.00 | 0.00 | 0.00 | 52 | 1009.6 |
| 20260505205004 | 41 | 262 | 6.0 | 20.0 | 0.00 | 0.00 | 0.00 | 53 | 1009.7 |
| 20260505204709 | 41 | 260 | 10.0 | 12.0 | 0.00 | 0.00 | 0.00 | 54 | 1009.6 |
| 20260505204004 | 42 | 257 | 9.0 | 16.0 | 0.00 | 0.00 | 0.00 | 52 | 1009.5 |
| 20260505203210 | 42 | 281 | 7.0 | 12.0 | 0.00 | 0.00 | 0.00 | 54 | 1009.5 |
| 20260505203005 | 42 | 266 | 10.0 | 20.0 | 0.00 | 0.00 | 0.00 | 54 | 1009.6 |
| 20260505202004 | 41 | 275 | 10.0 | 20.0 | 0.00 | 0.00 | 0.00 | 55 | 1009.8 |
| 20260505201709 | 40 | 256 | 8.0 | 12.0 | 0.00 | 0.00 | 0.00 | 54 | 1009.6 |
| 20260505201004 | 41 | 277 | 7.0 | 18.0 | 0.00 | 0.00 | 0.00 | 52 | 1009.5 |
| 20260505200209 | 41 | 266 | 5.0 | 12.0 | 0.00 | 0.00 | 0.00 | 53 | 1009.6 |
| 20260505195004 | 40 | 247 | 12.0 | 18.0 | 0.00 | 0.00 | 0.00 | 57 | 1009.6 |
| 20260505194708 | 40 | 277 | 7.0 | 13.0 | 0.00 | 0.00 | 0.00 | 56 | 1009.6 |
| 20260505194005 | 40 | 242 | 10.0 | 17.0 | 0.00 | 0.00 | 0.00 | 59 | 1009.5 |
| 20260505193209 | 40 | 259 | 9.0 | 16.0 | 0.00 | 0.00 | 0.00 | 57 | 1009.6 |
| 20260505193005 | 40 | 261 | 8.0 | 15.0 | 0.00 | 0.00 | 0.00 | 60 | 1009.6 |
| 20260505192005 | 39 | 248 | 13.0 | 18.0 | 0.00 | 0.00 | 0.00 | 59 | 1009.5 |
| 20260505191710 | 39 | 262 | 9.0 | 13.0 | 0.00 | 0.00 | 0.00 | 54 | 1009.5 |
| 20260505190210 | 39 | 260 | 6.0 | 9.0 | 0.00 | 0.00 | 0.00 | 57 | 1009.6 |
| 20260505185005 | 39 | 269 | 9.0 | 15.0 | 0.00 | 0.00 | 0.00 | 55 | 1009.4 |
| 20260505184710 | 39 | 271 | 7.0 | 15.0 | 0.00 | 0.00 | 0.00 | 55 | 1009.5 |
| 20260505184004 | 39 | 272 | 11.0 | 16.0 | 0.00 | 0.00 | 0.00 | 59 | 1009.4 |
| 20260505183209 | 39 | 273 | 8.0 | 13.0 | 0.00 | 0.00 | 0.00 | 58 | 1009.4 |
| 20260505183004 | 38 | 246 | 7.0 | 13.0 | 0.00 | 0.00 | 0.00 | 57 | 1009.4 |
| 20260505182005 | 38 | 263 | 6.0 | 17.0 | 0.00 | 0.00 | 0.00 | 55 | 1009.4 |
| 20260505181710 | 38 | 276 | 6.0 | 9.0 | 0.00 | 0.00 | 0.00 | 55 | 1009.4 |
| 20260505181004 | 38 | 269 | 5.0 | 16.0 | 0.00 | 0.00 | 0.00 | 56 | 1009.3 |
| 20260505180210 | 37 | 263 | 10.0 | 13.0 | 0.00 | 0.00 | 0.00 | 58 | 1009.2 |
| 20260505180004 | 37 | 278 | 5.0 | 18.0 | 0.00 | 0.00 | 0.00 | 59 | 1009.2 |
| 20260505175004 | 37 | 266 | 12.0 | 21.0 | 0.00 | 0.00 | 0.00 | 61 | 1009.4 |
| 20260505174710 | 37 | 263 | 7.0 | 18.0 | 0.00 | 0.00 | 0.00 | 62 | 1009.2 |
| 20260505174005 | 37 | 261 | 10.0 | 20.0 | 0.00 | 0.00 | 0.00 | 59 | 1009.3 |
| 20260505173209 | 37 | 248 | 8.0 | 15.0 | 0.00 | 0.00 | 0.00 | 63 | 1009.3 |
| 20260505173004 | 36 | 257 | 6.0 | 18.0 | 0.00 | 0.00 | 0.00 | 61 | 1009.2 |
| 20260505172004 | 36 | 260 | 8.0 | 13.0 | 0.00 | 0.00 | 0.00 | 60 | 1009.1 |
| 20260505171708 | 36 | 253 | 6.0 | 12.0 | 0.00 | 0.00 | 0.00 | 61 | 1009.2 |
| 20260505171005 | 36 | 274 | 9.0 | 15.0 | 0.00 | 0.00 | 0.00 | 64 | 1009.2 |
| 20260505170210 | 36 | 253 | 8.0 | 12.0 | 0.00 | 0.00 | 0.00 | 62 | 1009.2 |
| 20260505164708 | 36 | 248 | 10.0 | 16.0 | 0.00 | 0.00 | 0.00 | 61 | 1008.8 |
| 20260505164004 | 36 | 262 | 5.0 | 12.0 | 0.00 | 0.00 | 0.00 | 62 | 1009.0 |
| 20260505163210 | 35 | 277 | 6.0 | 12.0 | 0.00 | 0.00 | 0.00 | 60 | 1008.8 |
| 20260505163004 | 36 | 291 | 8.0 | 17.0 | 0.00 | 0.00 | 0.00 | 61 | 1008.8 |
| 20260505161709 | 36 | 257 | 10.0 | 12.0 | 0.00 | 0.00 | 0.00 | 62 | 1008.6 |
| 20260505161004 | 36 | 267 | 10.0 | 18.0 | 0.00 | 0.00 | 0.00 | 63 | 1008.7 |
| 20260505160210 | 36 | 273 | 6.0 | 18.0 | 0.00 | 0.00 | 0.00 | 62 | 1008.5 |
| 20260505153208 | 36 | 272 | 3.0 | 8.0 | 0.00 | 0.00 | 0.00 | 61 | 1008.1 |
| 20260505152005 | 36 | 308 | 7.0 | 13.0 | 0.00 | 0.00 | 0.00 | 60 | 1007.8 |
| 20260505151710 | 37 | 317 | 6.0 | 8.0 | 0.00 | 0.00 | 0.00 | 59 | 1007.7 |
| 20260505150209 | 37 | 264 | 6.0 | 10.0 | 0.00 | 0.00 | 0.00 | 62 | 1007.6 |
| 20260505140210 | 35 | 311 | 8.0 | 12.0 | 0.00 | 0.00 | 0.00 | 65 | 1007.1 |
| 20260505130210 | 34 | 290 | 5.0 | 12.0 | 0.00 | 0.00 | 0.00 | 71 | 1006.3 |
| 20260505125004 | 34 | 274 | 4.0 | 17.0 | 0.00 | 0.00 | 0.00 | 71 | 1006.1 |
| 20260505124709 | 34 | 260 | 5.0 | 12.0 | 0.00 | 0.00 | 0.00 | 71 | 1006.1 |
| 20260505124004 | 34 | 272 | 6.0 | 17.0 | 0.00 | 0.00 | 0.00 | 72 | 1006.0 |
| 20260505123209 | 34 | 292 | 8.0 | 17.0 | 0.00 | 0.00 | 0.00 | 73 | 1005.9 |
| 20260505122004 | 34 | 275 | 6.0 | 14.0 | 0.00 | 0.00 | 0.00 | 78 | 1005.6 |
| 20260505121710 | 34 | 272 | 7.0 | 9.0 | 0.00 | 0.00 | 0.00 | 77 | 1005.6 |
| 20260505121003 | 34 | 252 | 5.0 | 13.0 | 0.00 | 0.00 | 0.00 | 78 | 1005.4 |
| 20260505120208 | 34 | 267 | 6.0 | 8.0 | 0.00 | 0.00 | 0.00 | 79 | 1005.4 |
| 20260505115004 | 34 | 265 | 7.0 | 14.0 | 0.00 | 0.00 | 0.00 | 76 | 1005.2 |
| 20260505114709 | 34 | 270 | 3.0 | 8.0 | 0.00 | 0.00 | 0.00 | 76 | 1005.2 |
| 20260505114004 | 34 | 256 | 5.0 | 13.0 | 0.00 | 0.00 | 0.00 | 77 | 1005.0 |
| 20260505113209 | 34 | 267 | 6.0 | 10.0 | 0.00 | 0.00 | 0.00 | 77 | 1005.0 |
| 20260505113004 | 34 | 255 | 6.0 | 10.0 | 0.00 | 0.00 | 0.00 | 75 | 1004.9 |
| 20260505112004 | 34 | 262 | 6.0 | 10.0 | 0.00 | 0.00 | 0.00 | 76 | 1004.8 |
| 20260505111710 | 34 | 258 | 6.0 | 7.0 | 0.00 | 0.00 | 0.00 | 75 | 1004.7 |
| 20260505110209 | 35 | 267 | 6.0 | 7.0 | 0.00 | 0.00 | 0.00 | 76 | 1004.4 |
| 20260505102004 | 35 | 259 | 6.0 | 8.0 | 0.00 | 0.00 | 0.00 | 75 | 1004.2 |
| 20260505101709 | 35 | 267 | 6.0 | 7.0 | 0.00 | 0.00 | 0.00 | 74 | 1004.1 |
| 20260505100209 | 35 | 264 | 3.0 | 7.0 | 0.00 | 0.00 | 0.00 | 72 | 1004.1 |
| 20260505100004 | 35 | 246 | 6.0 | 7.0 | 0.00 | 0.00 | 0.00 | 72 | 1004.0 |
| 20260505094710 | 36 | 255 | 3.0 | 6.0 | 0.00 | 0.00 | 0.00 | 72 | 1003.8 |
| 20260505094004 | 36 | 271 | 5.0 | 9.0 | 0.00 | 0.00 | 0.00 | 73 | 1003.9 |
| 20260505093209 | 36 | 248 | 3.0 | 6.0 | 0.00 | 0.00 | 0.00 | 71 | 1003.7 |
| 20260505093004 | 36 | 253 | 5.0 | 7.0 | 0.00 | 0.00 | 0.00 | 70 | 1003.6 |
| 20260505092004 | 36 | 256 | 3.0 | 5.0 | 0.00 | 0.00 | 0.00 | 69 | 1003.6 |
| 20260505091709 | 36 | 266 | 2.0 | 3.0 | 0.00 | 0.00 | 0.00 | 68 | 1003.5 |
| 20260505091004 | 36 | 266 | 3.0 | 5.0 | 0.00 | 0.00 | 0.00 | 68 | 1003.4 |
| 20260505090210 | 37 | 267 | 2.0 | 3.0 | 0.00 | 0.00 | 0.00 | 68 | 1003.3 |
| 20260505085004 | 37 | 259 | 3.0 | 5.0 | 0.00 | 0.00 | 0.00 | 71 | 1003.1 |
| 20260505084709 | 37 | 257 | 1.0 | 3.0 | 0.00 | 0.00 | 0.00 | 68 | 1003.0 |
| 20260505084004 | 37 | 269 | 1.0 | 3.0 | 0.00 | 0.00 | 0.00 | 68 | 1003.1 |
| 20260505083208 | 37 | 265 | 2.0 | 2.0 | 0.00 | 0.00 | 0.00 | 67 | 1003.1 |
| 20260505081709 | 38 | 269 | 3.0 | 5.0 | 0.00 | 0.00 | 0.00 | 67 | 1002.8 |
| 20260505080210 | 38 | 252 | 3.0 | 6.0 | 0.00 | 0.00 | 0.00 | 63 | 1002.7 |
| 20260505080004 | 38 | 249 | 4.0 | 6.0 | 0.00 | 0.00 | 0.00 | 64 | 1002.8 |
| 20260505075003 | 38 | 277 | 2.0 | 5.0 | 0.00 | 0.00 | 0.00 | 62 | 1002.7 |
| 20260505074709 | 39 | 275 | 3.0 | 5.0 | 0.00 | 0.00 | 0.00 | 62 | 1002.7 |
| 20260505074004 | 39 | 253 | 2.0 | 7.0 | 0.00 | 0.00 | 0.00 | 61 | 1002.7 |
| 20260505073208 | 39 | 265 | 3.0 | 5.0 | 0.00 | 0.00 | 0.00 | 62 | 1002.7 |
| 20260505072003 | 39 | 260 | 6.0 | 12.0 | 0.00 | 0.00 | 0.00 | 61 | 1002.7 |
| 20260505071709 | 39 | 258 | 3.0 | 6.0 | 0.00 | 0.00 | 0.00 | 61 | 1002.7 |
| 20260505070209 | 39 | 266 | 5.0 | 8.0 | 0.00 | 0.00 | 0.00 | 60 | 1002.7 |
| 20260505070003 | 39 | 254 | 6.0 | 9.0 | 0.00 | 0.00 | 0.00 | 61 | 1002.8 |
| 20260505065003 | 40 | 286 | 7.0 | 14.0 | 0.00 | 0.00 | 0.00 | 61 | 1002.7 |
| 20260505064709 | 40 | 270 | 6.0 | 14.0 | 0.00 | 0.00 | 0.00 | 62 | 1002.8 |
| 20260505063208 | 40 | 267 | 7.0 | 12.0 | 0.00 | 0.00 | 0.00 | 60 | 1002.7 |
| 20260505062004 | 40 | 263 | 5.0 | 15.0 | 0.00 | 0.00 | 0.00 | 60 | 1002.7 |
| 20260505061710 | 40 | 262 | 7.0 | 6.0 | 0.00 | 0.00 | 0.00 | 58 | 1002.7 |
| 20260505061004 | 40 | 259 | 8.0 | 13.0 | 0.00 | 0.00 | 0.00 | 58 | 1002.7 |
| 20260505060208 | 41 | 260 | 7.0 | 10.0 | 0.00 | 0.00 | 0.00 | 59 | 1002.6 |
| 20260505060004 | 41 | 270 | 8.0 | 13.0 | 0.00 | 0.00 | 0.00 | 58 | 1002.7 |